Fulton, NY

9:33 AM EDT on October 18, 2019 (GMT -0400)
Oswego County

Weather History for KFZY - May, 2019

Change the Weather History Date:

Monday, May 27, 2019

  Actual Average (WUND) Record (WUND)
Temperature  
Mean Temperature 59 °F -  
Max Temperature 73 °F - - (-1)
Min Temperature 46 °F - - (-1)
Degree Days  
Heating Degree Days 6    
Growing Degree Days 9 (Base 50)    
Moisture  
Dew Point 47 °F    
Average Humidity 65    
Maximum Humidity 89    
Minimum Humidity 42    
Precipitation  
Precipitation 0.00 in - - ()
Sea Level Pressure  
Sea Level Pressure 29.99 in    
Wind  
Wind Speed 3 mph (NW)    
Max Wind Speed 10 mph    
Max Gust Speed 18 mph    
Visibility 10 miles    
Events      
Averages and records for this station are not official NWS values.
T = Trace of Precipitation, MM = Missing Value Source: NWS Daily Summary

Daily Weather History Graph

Daily Weather History Graph

Search for Another Location

Airport or City:

Astronomy

May. 27, 2019 Rise Set
Actual Time 5:31 AM EDT 8:34 PM EDT
Civil Twilight 4:56 AM EDT 9:09 PM EDT
Nautical Twilight 4:13 AM EDT 9:53 PM EDT
Astronomical Twilight 3:21 AM EDT 10:45 PM EDT
Moon 2:29 AM EDT (5/27) 1:31 PM EDT (5/27)
Length of Visible Light 16h 12m
Length of Day
15h 03m
Last Quarter, 41% of the Moon is Illuminated
May 27
Last Quarter
Jun 3
New
Jun 10
First Quarter
Jun 17
Full
Jun 25
Last Quarter

Hourly Weather History & Observations

Time (EDT) Temp. Dew Point Humidity Pressure Visibility Wind Dir Wind Speed Gust Speed Precip Events Conditions
12:54 AM 52.0 °F 45.0 °F 77% 29.98 in 10.0 mi Calm Calm - N/A   Scattered Clouds
1:54 AM 51.1 °F 45.0 °F 80% 29.97 in 10.0 mi WNW 4.6 mph - N/A   Partly Cloudy
2:54 AM 50.0 °F 45.0 °F 83% 29.97 in 10.0 mi Calm Calm - N/A   Clear
3:54 AM 48.9 °F 44.1 °F 83% 29.96 in 10.0 mi Calm Calm - N/A   Clear
4:54 AM 46.0 °F 43.0 °F 89% 29.97 in 10.0 mi Calm Calm - N/A   Clear
5:54 AM 46.0 °F 43.0 °F 89% 29.99 in 10.0 mi Calm Calm - N/A   Clear
6:54 AM 52.0 °F 48.0 °F 86% 30.01 in 10.0 mi Calm Calm - N/A   Clear
7:54 AM 57.9 °F 50.0 °F 75% 30.02 in 10.0 mi WSW 4.6 mph - N/A   Clear
8:54 AM 62.1 °F 51.1 °F 67% 30.05 in 10.0 mi WNW 4.6 mph - N/A   Clear
9:54 AM 64.9 °F 50.0 °F 58% 30.04 in 10.0 mi NW 5.8 mph - N/A   Clear
10:54 AM 68.0 °F 48.0 °F 49% 30.02 in 10.0 mi WNW 3.5 mph - N/A   Clear
11:54 AM 70.0 °F 48.9 °F 47% 30.01 in 10.0 mi Variable 3.5 mph - N/A   Clear
12:54 PM 72.0 °F 48.0 °F 43% 30.01 in 10.0 mi West 6.9 mph - N/A   Clear
1:54 PM 71.1 °F 48.9 °F 45% 30.01 in 10.0 mi North 10.4 mph 18.4 mph N/A   Clear
2:54 PM 72.0 °F 48.9 °F 44% 30.00 in 10.0 mi NNW 8.1 mph - N/A   Clear
3:54 PM 71.1 °F 46.9 °F 42% 29.99 in 10.0 mi WNW 10.4 mph - N/A   Clear
4:54 PM 69.1 °F 45.0 °F 42% 29.99 in 10.0 mi NNW 9.2 mph - N/A   Clear
5:54 PM 66.0 °F 45.0 °F 47% 29.99 in 10.0 mi North 8.1 mph - N/A   Clear
6:54 PM 64.0 °F 48.9 °F 58% 29.99 in 10.0 mi NNE 8.1 mph - N/A   Clear
7:54 PM 61.0 °F 48.0 °F 62% 29.98 in 10.0 mi Calm Calm - N/A   Clear
8:54 PM 57.9 °F 48.0 °F 70% 29.99 in 10.0 mi Calm Calm - N/A   Clear
9:54 PM 57.9 °F 48.0 °F 70% 29.98 in 10.0 mi Calm Calm - N/A   Partly Cloudy
10:54 PM 57.9 °F 48.0 °F 70% 29.94 in 10.0 mi Calm Calm - N/A   Mostly Cloudy
11:54 PM 55.9 °F 48.9 °F 77% 29.95 in 10.0 mi Calm Calm - N/A   Clear